IST,Max TemperatureF,Mean TemperatureF,Min TemperatureF,Max Dew PointF,MeanDew PointF,Min DewpointF,Max Humidity, Mean Humidity, Min Humidity, Max Sea Level PressureIn, Mean Sea Level PressureIn, Min Sea Level PressureIn, Max VisibilityMiles, Mean VisibilityMiles, Min VisibilityMiles, Max Wind SpeedMPH, Mean Wind SpeedMPH, Max Gust SpeedMPH,PrecipitationIn, CloudCover, Events, WindDirDegrees
2012-9-1,64,58,51,57,55,52,100,92,65,30.41,30.28,29.62,19,7,6,21,10,,0.00,4,Rain,226
2012-9-2,69,62,55,61,57,52,100,85,60,30.36,30.25,30.18,12,6,6,12,9,,0.00,4,,299
2012-9-3,66,58,51,61,56,50,100,93,60,30.37,30.31,30.27,12,5,0,14,6,,0.00,5,Fog-Rain,231
2012-9-4,64,58,51,61,54,48,100,81,53,30.39,30.31,30.24,19,6,1,18,11,,0.00,5,,319
2012-9-5,64,55,46,54,49,46,100,82,57,30.48,30.44,30.42,19,7,6,13,9,,0.00,2,,336
2012-9-6,66,57,48,57,52,48,100,86,56,30.45,30.35,30.27,6,5,0,10,5,,0.00,3,Fog,223
2012-9-7,67,58,49,61,55,50,100,92,73,30.32,30.27,30.24,19,6,2,10,6,,0.00,4,,230
2012-9-8,60,56,53,57,53,50,100,90,74,30.23,30.07,29.89,17,6,2,12,6,,0.00,5,,182
2012-9-9,64,58,53,61,58,55,100,97,86,29.89,29.69,29.59,12,6,1,21,12,,0.08,5,Rain,202
2012-9-10,63,56,48,61,55,46,100,96,82,29.83,29.70,29.65,12,6,6,18,10,,0.20,5,Rain,251
2012-9-11,55,48,42,48,45,41,94,80,58,30.09,30.00,29.83,19,7,6,18,10,,0.00,4,,267
2012-9-12,62,55,48,55,51,48,100,87,63,30.18,30.03,29.95,19,7,2,24,11,,0.00,4,Fog-Rain,276
2012-9-13,64,56,47,57,52,46,100,88,72,30.22,30.12,30.01,19,6,6,18,9,,0.00,4,,247
2012-9-14,63,58,53,57,51,49,100,80,60,30.12,30.04,29.95,19,7,6,23,12,,0.00,4,,281
2012-9-15,62,56,51,55,52,50,100,88,72,30.14,30.04,29.95,19,7,2,14,7,,0.00,6,,248
2012-9-16,64,55,46,61,52,43,100,88,59,29.96,29.87,29.80,19,6,1,18,11,29,0.04,4,Fog-Rain,243
2012-9-17,60,52,45,52,48,45,100,85,67,29.93,29.87,29.83,19,7,6,17,11,,0.02,4,Rain,242
2012-9-18,58,52,45,45,43,39,93,74,50,30.24,30.07,29.89,19,7,6,18,12,30,0.00,2,Rain,293
2012-9-19,58,50,43,52,45,39,100,80,53,30.28,30.23,30.15,19,7,6,14,7,,0.00,4,Rain,252
2012-9-20,58,54,50,52,51,48,100,90,69,30.16,30.06,30.01,12,6,6,16,10,,0.00,6,Rain,225
2012-9-21,56,52,48,52,48,41,100,84,53,30.12,30.04,30.01,19,7,6,13,6,,0.00,4,,347
2012-9-22,56,50,43,50,44,39,94,80,54,30.13,30.07,29.98,6,6,6,13,8,,0.00,6,,95
2012-9-23,56,52,48,54,49,46,100,90,80,29.98,29.71,29.50,19,7,6,15,9,,0.04,5,Rain,74
2012-9-24,54,50,47,48,47,45,100,90,70,29.51,29.37,29.27,19,7,3,16,9,,0.01,6,Rain,303
2012-9-25,50,48,45,48,46,45,100,93,87,29.27,29.22,29.18,19,7,6,21,12,30,0.04,6,Rain,317
2012-9-26,59,54,48,48,47,45,94,80,63,29.77,29.46,29.27,12,6,6,30,20,44,0.00,5,Rain,334
2012-9-27,57,52,47,54,46,41,100,83,60,29.90,29.85,29.77,12,6,2,17,12,,0.03,5,Rain,267
2012-9-28,57,52,48,54,48,45,100,86,67,30.04,29.91,29.83,19,6,2,17,10,26,0.02,5,Rain,262
2012-9-29,60,53,46,52,46,43,94,79,52,30.18,30.12,30.04,19,7,6,17,11,,0.00,4,,258
2012-9-30,59,55,50,59,54,50,100,96,82,30.06,29.90,29.83,19,6,2,25,17,37,0.24,5,Rain,226